Location: Elmsmere
(40.9284°N, 73.8207°W)
Time: 09:36:59
(UTC+00:00)

Tiangong - Visible Passes

Search period start: 04 December 2022 00:00
Search period end: 14 December 2022 00:00
Orbit: 386 x 394 km, 41.5° (Epoch: 03 December)

Date Brightness Start Highest point End Pass type
(mag) Time Alt. Az. Time Alt. Az. Time Alt. Az.
04 Dec -2.2 22:35:46 10° W 22:38:58 85° N 22:40:34 27° E visible
05 Dec 1.5 00:12:46 10° W 00:12:53 11° W 00:12:53 11° W visible
05 Dec -2.0 23:14:42 10° W 23:17:37 71° WNW 23:17:37 71° WNW visible
06 Dec -2.2 22:16:36 10° W 22:19:47 78° N 22:22:22 15° E visible
06 Dec 0.7 23:53:35 10° W 23:54:41 19° W 23:54:41 19° W visible
07 Dec -2.2 22:55:27 10° W 22:58:38 81° SSW 22:59:28 46° ESE visible
08 Dec -2.1 21:57:17 10° W 22:00:29 84° N 22:03:41 10° E visible
08 Dec -0.4 23:34:19 10° W 23:36:38 33° SW 23:36:38 33° SW visible
09 Dec -1.6 22:36:04 10° W 22:39:11 56° SSW 22:41:36 16° ESE visible
10 Dec 1.5 00:13:55 10° WSW 00:13:56 10° WSW 00:13:56 10° WSW visible
10 Dec 0.1 23:15:05 10° W 23:17:40 23° SSW 23:19:03 17° S visible
11 Dec -0.5 22:16:36 10° W 22:19:33 35° SSW 22:22:29 10° SE visible
12 Dec 1.0 22:56:15 10° WSW 22:57:49 13° SSW 22:59:22 10° S visible
13 Dec 0.6 21:57:12 10° W 21:59:41 21° SSW 22:02:09 10° SSE visible
